Waarnemingen

Advertentie
Mijn weer
Lycksele, Zweden (2261): temperatuur & dauwpunt: 13.11.2017 18:00:00 - 19.11.2017 18:00:00 (CET)Lycksele, Zweden (2261): windsnelheid & windstoten: 13.11.2017 18:00:00 - 19.11.2017 18:00:00 (CET)Lycksele, Zweden (2261): windrichting: 13.11.2017 18:00:00 - 19.11.2017 18:00:00 (CET)Lycksele, Zweden (2261): luchtdruk: 13.11.2017 18:00:00 - 19.11.2017 18:00:00 (CET)Lycksele, Zweden (2261): zicht: 13.11.2017 18:00:00 - 19.11.2017 18:00:00 (CET)Lycksele, Zweden (2261): neerslag: 13.11.2017 18:00:00 - 19.11.2017 18:00:00 (CET)
Datum & Tijd tt [°C] td [°C] ff [km/u] ff [kn] fx [km/u] fx [kn] dd ppp [hPa] vv [km] rr [mm]
19.11.2017 18:00:00 -5,3 -6,4 11 6 22 12 NNW 1006,4 50 0,0
19.11.2017 17:00:00 -5,1 -5,9 12 6 22 12 NNW 1006,2 26 0,0
19.11.2017 16:00:00 -5,0 -5,8 12 7 19 10 NNW 1006,1 20 0,0
19.11.2017 15:00:00 -4,7 -5,7 12 6 20 11 NNW 1005,7 16 0,0
19.11.2017 14:00:00 -4,8 -5,3 12 6 25 14 NNW 1005,4 20 0,0
19.11.2017 13:00:00 -4,7 -5,1 16 9 26 14 NNW 1004,7 23 0,0
19.11.2017 12:00:00 -4,7 -5,0 13 7 24 13 NNW 1004,4 25 0,0
19.11.2017 11:00:00 -4,9 -5,3 10 5 20 11 NNW 1004,3 27 0,0
19.11.2017 10:00:00 -5,2 -5,5 9 5 16 9 NNW 1003,8 14 0,0
19.11.2017 09:00:00 -5,2 -5,3 8 5 16 9 NNW 1003,3 10 0,0
19.11.2017 08:00:00 -5,4 -5,5 9 5 17 9 NNW 1002,6 11 0,0
19.11.2017 07:00:00 -5,8 -6,1 9 5 13 7 NW 1002,3 35 0,0
19.11.2017 06:00:00 -5,9 -6,2 8 5 16 9 NNW 1002,1 40 0,0
19.11.2017 05:00:00 -6,1 -6,4 8 5 17 9 NNW 1001,7 26 0,0
19.11.2017 04:00:00 -6,2 -6,5 10 5 18 10 NNW 1001,4 18 0,0
19.11.2017 03:00:00 -6,6 -6,9 9 5 14 7 NNW 1001,2 50 0,0
19.11.2017 02:00:00 -7,1 -7,5 9 5 15 8 NNW 1000,8 40 0,0
19.11.2017 01:00:00 -7,5 -7,9 11 6 14 7 NNW 1000,9 - 0,0
19.11.2017 00:00:00 -8,9 -9,6 0 0 7 4 N 1001,0 10 0,0
18.11.2017 23:00:00 -9,7 -10,3 0 0 10 5 N 1000,6 11 0,2
18.11.2017 22:00:00 -12,6 -13,6 5 3 9 5 NNW 1000,4 2,8 0,0
18.11.2017 21:00:00 -13,6 -14,8 0 0 3 2 N 1000,5 3,3 0,0
18.11.2017 20:00:00 -12,7 -14,0 0 0 2 1 N 1000,0 50 0,0
18.11.2017 19:00:00 -11,1 -12,0 0 0 1 1 N 999,7 50 0,0
18.11.2017 18:00:00 -12,4 -13,4 0 0 3 1 N 999,3 50 0,0
18.11.2017 17:00:00 -14,2 -15,2 3 1 4 2 W 998,9 50 0,0
18.11.2017 16:00:00 -12,5 -13,5 0 0 4 2 N 998,9 50 0,0
18.11.2017 15:00:00 -11,8 -13,0 3 1 5 3 WNW 998,5 50 0,0
18.11.2017 14:00:00 -11,2 -12,4 0 0 3 1 N 998,1 1,4 0,0
18.11.2017 13:00:00 -6,5 -6,9 0 0 2 1 N 997,4 50 0,0
18.11.2017 12:00:00 -6,4 -6,7 0 0 1 1 N 997,1 50 0,0
18.11.2017 11:00:00 -7,1 -7,5 0 0 3 1 N 997,0 50 0,0
18.11.2017 10:00:00 -8,3 -8,8 0 0 3 2 N 996,9 50 0,0
18.11.2017 09:00:00 -9,3 -10,0 0 0 1 1 N 996,5 50 0,0
18.11.2017 08:00:00 -11,0 -11,9 0 0 3 2 N 996,0 50 0,0
18.11.2017 07:00:00 -11,8 -12,8 0 0 5 3 N 995,8 50 0,0
18.11.2017 06:00:00 -10,8 -11,6 0 0 2 1 N 995,7 50 0,0
18.11.2017 05:00:00 -11,1 -12,1 0 0 2 1 N 995,6 50 0,0
18.11.2017 04:00:00 -10,1 -10,9 0 0 2 1 N 995,3 50 0,0
18.11.2017 03:00:00 -10,5 -11,3 0 0 3 2 N 995,2 50 0,0
18.11.2017 02:00:00 -11,2 -12,1 0 0 3 1 N 995,0 50 0,0
18.11.2017 01:00:00 -12,3 -13,2 0 0 4 2 N 994,9 50 0,0
18.11.2017 00:00:00 -12,8 -14,0 0 0 1 1 N 994,7 50 0,0
17.11.2017 23:00:00 -13,4 -14,4 0 0 4 2 N 994,8 50 0,0
17.11.2017 22:00:00 -13,6 -14,9 0 0 3 2 N 994,4 50 0,0
17.11.2017 21:00:00 -13,5 -14,7 2 1 4 2 ZZO 994,3 50 0,0
17.11.2017 20:00:00 -12,3 -13,5 2 1 3 2 WNW 993,9 45 0,0
17.11.2017 19:00:00 -10,1 -10,7 0 0 3 2 N 993,6 50 0,0
17.11.2017 18:00:00 -8,9 -9,6 0 0 3 1 N 993,8 1,0 0,0
17.11.2017 17:00:00 -7,0 -7,1 0 0 4 2 N 993,7 31 0,0
17.11.2017 16:00:00 -5,7 -5,8 0 0 7 4 N 993,7 4,4 0,0
17.11.2017 15:00:00 -3,7 -3,7 6 4 11 6 NW 993,2 28 0,1
17.11.2017 14:00:00 -2,8 -2,8 2 1 10 6 NW 993,1 7 0,1
17.11.2017 13:00:00 -2,7 -2,7 8 5 12 7 NW 993,0 3,0 0,1
17.11.2017 12:00:00 -2,9 -2,9 5 3 13 7 WNW 993,2 3,6 0,0
17.11.2017 11:00:00 -3,0 -3,0 7 4 14 8 WNW 992,9 7 0,4
17.11.2017 10:00:00 -3,1 -3,1 8 5 21 11 WNW 992,9 2,9 0,0
17.11.2017 09:00:00 -2,3 -2,3 3 2 8 4 WNW 993,2 2,1 0,7
17.11.2017 08:00:00 -2,3 -2,3 2 1 5 3 WNW 993,1 1,5 0,6
17.11.2017 07:00:00 -2,6 -2,6 0 0 5 3 N 993,1 4,1 0,3
17.11.2017 06:00:00 -2,4 -2,4 3 1 4 2 NW 993,5 2,0 0,3
17.11.2017 05:00:00 -3,5 -3,5 2 1 3 2 NW 994,2 12 0,0
17.11.2017 04:00:00 -2,6 -2,6 3 1 4 2 NW 995,0 3,6 0,3
17.11.2017 03:00:00 -2,6 -2,6 0 0 4 2 N 996,1 2,7 0,1
17.11.2017 02:00:00 -2,6 -2,6 0 0 5 3 N 997,0 1,9 0,0
17.11.2017 01:00:00 -2,5 -2,5 2 1 9 5 ZZO 998,0 4,4 0,0
17.11.2017 00:00:00 -2,7 -2,7 5 3 10 6 ZO 999,3 26 0,2
16.11.2017 23:00:00 -3,1 -3,1 7 4 11 6 ZO 1000,5 2,5 0,3
16.11.2017 22:00:00 -3,5 -3,5 8 4 12 7 ZO 1001,9 4,6 0,1
16.11.2017 21:00:00 -3,8 -3,8 8 4 14 7 ZZO 1003,2 50 0,0
16.11.2017 20:00:00 -6,3 -6,6 0 0 4 2 N 1004,4 46 0,0
16.11.2017 19:00:00 -8,0 -8,5 0 0 3 2 N 1005,8 33 0,0
16.11.2017 18:00:00 -10,9 -11,7 0 0 1 1 N 1007,1 50 0,0
16.11.2017 17:00:00 -10,4 -11,3 0 0 3 1 N 1008,0 4,0 0,0
16.11.2017 16:00:00 -10,3 -11,2 0 0 5 3 N 1009,1 7 0,0
16.11.2017 15:00:00 -8,7 -9,2 5 3 6 3 ZZO 1009,7 43 0,0
16.11.2017 14:00:00 -9,0 -9,7 0 0 4 2 N 1010,0 35 0,0
16.11.2017 13:00:00 -8,6 -9,3 0 0 4 2 N 1010,6 30 0,0
16.11.2017 12:00:00 -9,9 -11,1 0 0 4 2 N 1010,7 36 0,0
16.11.2017 11:00:00 -10,2 -11,1 2 1 5 3 NW 1010,9 48 0,0
16.11.2017 10:00:00 -11,4 -12,6 0 0 4 2 N 1010,9 50 0,0
16.11.2017 09:00:00 -13,4 -14,6 0 0 3 1 N 1011,0 50 0,0
16.11.2017 08:00:00 -14,2 -15,6 0 0 4 2 N 1010,6 50 0,0
16.11.2017 07:00:00 -12,6 -13,9 0 0 3 2 N 1010,2 43 0,0
16.11.2017 06:00:00 -12,3 -13,3 3 1 4 2 NW 1009,6 3,9 0,0
16.11.2017 05:00:00 -12,4 -13,6 0 0 4 2 N 1009,1 50 0,0
16.11.2017 04:00:00 -11,1 -12,0 3 1 5 3 WNW 1008,5 50 0,0
16.11.2017 03:00:00 -10,9 -11,8 3 2 5 3 W 1007,9 50 0,0
16.11.2017 02:00:00 -9,7 -10,6 2 1 8 4 W 1007,0 50 0,0
16.11.2017 01:00:00 -8,9 -9,8 5 3 9 5 NW 1005,5 50 0,0
16.11.2017 00:00:00 -9,2 -9,9 4 2 6 3 NW 1004,4 32 0,1
15.11.2017 23:00:00 -9,3 -10,1 3 2 5 3 NW 1003,7 3,9 1,0
15.11.2017 22:00:00 -12,1 -13,0 0 0 3 2 N 1003,5 26 0,0
15.11.2017 21:00:00 -14,8 -16,2 0 0 3 2 N 1003,6 35 0,0
15.11.2017 20:00:00 -15,3 -16,8 0 0 4 2 N 1003,6 50 0,0
15.11.2017 19:00:00 -15,2 -16,7 0 0 2 1 N 1003,7 50 -
15.11.2017 18:00:00 -14,9 -16,4 0 0 2 1 N 1003,7 50 -
15.11.2017 17:00:00 -13,8 -15,2 0 0 3 1 N 1003,6 50 -
15.11.2017 16:00:00 -13,5 -14,9 0 0 3 2 N 1003,4 42 -
15.11.2017 15:00:00 -14,1 -15,4 2 1 4 2 WNW 1003,0 50 -
15.11.2017 14:00:00 -14,0 -15,4 0 0 3 1 N 1003,2 50 -
15.11.2017 13:00:00 -13,7 -15,1 0 0 2 1 N 1003,2 50 -
15.11.2017 12:00:00 -14,3 -15,8 0 0 1 1 N 1003,3 50 -
15.11.2017 11:00:00 -14,6 -16,0 0 0 3 1 N 1003,5 47 -
15.11.2017 10:00:00 -17,8 -19,6 0 0 - - N 1003,9 50 -
15.11.2017 09:00:00 -18,5 -20,4 0 0 2 1 N 1003,8 39 0,0
15.11.2017 08:00:00 -19,3 -21,2 0 0 4 2 N 1004,0 50 0,0
15.11.2017 07:00:00 -19,0 -20,9 2 1 5 3 WZW 1004,1 41 0,0
15.11.2017 06:00:00 -18,6 -20,4 0 0 3 1 N 1003,8 30 0,0
15.11.2017 05:00:00 -19,0 -20,9 0 0 3 2 N 1003,9 50 0,0
15.11.2017 04:00:00 -18,2 -20,0 0 0 2 1 N 1004,2 50 0,0
15.11.2017 03:00:00 -17,9 -19,7 0 0 3 1 N 1004,6 50 0,0
15.11.2017 02:00:00 -17,8 -19,6 2 1 3 2 WZW 1004,7 50 0,0
15.11.2017 01:00:00 -17,0 -18,6 0 0 3 2 N 1004,9 50 0,0
15.11.2017 00:00:00 -16,7 -18,4 0 0 3 2 N 1004,8 50 0,0
14.11.2017 23:00:00 -16,0 -17,5 0 0 4 2 N 1004,7 50 0,0
14.11.2017 22:00:00 -15,3 -16,7 0 0 3 1 N 1004,5 50 0,0
14.11.2017 21:00:00 -14,9 -16,3 0 0 2 1 N 1004,5 50 0,0
14.11.2017 20:00:00 -14,2 -15,5 0 0 2 1 N 1004,3 50 0,0
14.11.2017 19:00:00 -13,6 -14,9 0 0 2 1 N 1003,9 50 0,0
14.11.2017 18:00:00 -12,8 -13,8 0 0 2 1 N 1003,8 50 0,0
14.11.2017 17:00:00 -11,9 -12,8 0 0 3 2 N 1003,8 50 0,0
14.11.2017 16:00:00 -11,6 -12,8 0 0 2 1 N 1003,7 50 0,0
14.11.2017 15:00:00 -9,5 -10,0 0 0 3 1 N 1003,6 50 0,0
14.11.2017 14:00:00 -8,8 -9,2 0 0 4 2 N 1003,4 24 0,0
14.11.2017 13:00:00 -9,2 -9,9 4 2 5 3 NW 1003,4 32 0,0
14.11.2017 12:00:00 -9,0 -9,5 4 2 5 3 NW 1003,3 22 0,0
14.11.2017 11:00:00 -10,0 -10,9 0 0 4 2 N 1003,6 40 0,0
14.11.2017 10:00:00 -10,5 -11,5 0 0 5 3 N 1003,7 50 0,0
14.11.2017 09:00:00 -11,8 -12,8 0 0 5 3 N 1003,6 50 0,0
14.11.2017 08:00:00 -11,4 -12,3 0 0 3 2 N 1003,6 50 0,0
14.11.2017 07:00:00 -11,5 -12,4 0 0 4 2 N 1003,5 50 0,0
14.11.2017 06:00:00 -11,0 -11,9 0 0 5 3 N 1003,6 50 0,0
14.11.2017 05:00:00 -10,5 -10,9 0 0 4 2 N 1004,0 50 0,0
14.11.2017 04:00:00 -9,8 -10,2 0 0 5 3 N 1004,0 50 0,0
14.11.2017 03:00:00 -9,8 -10,3 0 0 4 2 N 1004,3 50 0,0
14.11.2017 02:00:00 -9,3 -9,7 0 0 6 3 N 1004,3 50 0,0
14.11.2017 01:00:00 -8,4 -8,7 0 0 4 2 N 1004,3 50 0,0
14.11.2017 00:00:00 -7,3 -7,3 0 0 4 2 N 1004,2 50 0,0
13.11.2017 23:00:00 -6,1 -6,1 0 0 8 5 N 1004,1 50 0,0
13.11.2017 22:00:00 -4,5 -4,5 2 1 6 3 WNW 1004,0 50 0,0
13.11.2017 21:00:00 -4,4 -4,4 3 2 6 3 ZW 1004,0 50 0,0
13.11.2017 20:00:00 -4,2 -4,2 0 0 4 2 N 1003,9 50 0,0
13.11.2017 19:00:00 -3,1 -3,1 0 0 5 3 N 1003,7 50 0,0
13.11.2017 18:00:00 -2,9 -3,0 3 1 6 3 NNW 1003,7 50 0,0

tt = temperatuur
td = dauwpunt
ff = windsnelheid
fx = windstoten
dd = windrichting
ppp = luchtdruk
vv = zicht
rr = neerslag

Weerstations in de omgeving